Time,TemperatureF,DewpointF,PressureIn,WindDirection,WindDirectionDegrees,WindSpeedMPH,WindSpeedGustMPH,Humidity,HourlyPrecipIn,Conditions,Clouds,dailyrainin,SoftwareType,DateUTC
2013-07-28 00:11:00,71.2,71.0,29.91,ESE,102,0.0,0.0,98,0.00,,,0.00,weatherlink.com 1.10,2013-07-28 04:11:00,
2013-07-28 00:26:00,71.1,71.0,29.91,ESE,102,0.0,0.0,98,0.00,,,0.00,weatherlink.com 1.10,2013-07-28 04:26:00,
2013-07-28 00:41:00,71.0,70.0,29.91,ESE,102,0.0,0.0,98,0.00,,,0.00,weatherlink.com 1.10,2013-07-28 04:41:00,
2013-07-28 00:56:00,70.7,70.0,29.91,ESE,102,0.0,0.0,98,0.00,,,0.00,weatherlink.com 1.10,2013-07-28 04:56:00,
2013-07-28 01:11:00,70.7,70.0,29.91,ESE,102,0.0,0.0,99,0.00,,,0.00,weatherlink.com 1.10,2013-07-28 05:11:00,
2013-07-28 01:27:00,70.8,71.0,29.90,ESE,102,0.0,0.0,99,0.00,,,0.00,weatherlink.com 1.10,2013-07-28 05:27:00,
2013-07-28 01:41:00,70.9,71.0,29.90,ESE,102,0.0,0.0,99,0.00,,,0.00,weatherlink.com 1.10,2013-07-28 05:41:00,
2013-07-28 01:56:00,70.9,71.0,29.90,ESE,102,0.0,0.0,99,0.00,,,0.00,weatherlink.com 1.10,2013-07-28 05:56:00,
2013-07-28 02:11:00,71.0,71.0,29.89,ESE,102,0.0,0.0,99,0.00,,,0.00,weatherlink.com 1.10,2013-07-28 06:11:00,
2013-07-28 02:26:00,71.0,71.0,29.89,ESE,102,0.0,0.0,99,0.00,,,0.00,weatherlink.com 1.10,2013-07-28 06:26:00,
2013-07-28 02:41:00,71.0,71.0,29.89,ESE,102,0.0,0.0,99,0.00,,,0.00,weatherlink.com 1.10,2013-07-28 06:41:00,
2013-07-28 02:56:00,71.1,71.0,29.90,ESE,102,0.0,0.0,99,0.00,,,0.00,weatherlink.com 1.10,2013-07-28 06:56:00,
2013-07-28 03:11:00,71.1,71.0,29.89,ESE,102,0.0,0.0,99,0.00,,,0.00,weatherlink.com 1.10,2013-07-28 07:11:00,
2013-07-28 03:26:00,71.1,71.0,29.89,ESE,102,0.0,2.0,99,0.00,,,0.00,weatherlink.com 1.10,2013-07-28 07:26:00,
2013-07-28 03:56:00,71.0,71.0,29.90,East,101,0.0,1.0,99,0.00,,,0.00,weatherlink.com 1.10,2013-07-28 07:56:00,
2013-07-28 04:11:00,71.0,71.0,29.90,East,101,1.0,1.0,99,0.00,,,0.00,weatherlink.com 1.10,2013-07-28 08:11:00,
2013-07-28 04:26:00,70.9,71.0,29.89,ESE,102,0.0,2.0,99,0.00,,,0.00,weatherlink.com 1.10,2013-07-28 08:26:00,
2013-07-28 04:41:00,70.9,71.0,29.90,ESE,102,0.0,1.0,99,0.00,,,0.00,weatherlink.com 1.10,2013-07-28 08:41:00,
2013-07-28 04:56:00,70.8,71.0,29.90,ESE,102,0.0,0.0,99,0.00,,,0.00,weatherlink.com 1.10,2013-07-28 08:56:00,
2013-07-28 05:26:00,70.6,70.0,29.91,ESE,102,0.0,0.0,99,0.00,,,0.00,weatherlink.com 1.10,2013-07-28 09:26:00,
2013-07-28 05:41:00,70.4,70.0,29.90,ESE,102,0.0,0.0,99,0.00,,,0.00,weatherlink.com 1.10,2013-07-28 09:41:00,
2013-07-28 05:56:00,70.3,70.0,29.91,ESE,102,0.0,0.0,99,0.00,,,0.00,weatherlink.com 1.10,2013-07-28 09:56:00,
2013-07-28 06:11:00,70.2,70.0,29.91,ESE,102,0.0,0.0,99,0.00,,,0.00,weatherlink.com 1.10,2013-07-28 10:11:00,
2013-07-28 06:26:00,70.2,70.0,29.92,ESE,102,0.0,1.0,99,0.00,,,0.00,weatherlink.com 1.10,2013-07-28 10:26:00,
2013-07-28 06:41:00,70.3,70.0,29.92,ESE,108,0.0,2.0,99,0.00,,,0.00,weatherlink.com 1.10,2013-07-28 10:41:00,
2013-07-28 06:56:00,70.4,70.0,29.92,SE,138,0.0,4.0,99,0.00,,,0.00,weatherlink.com 1.10,2013-07-28 10:56:00,
2013-07-28 07:11:00,70.5,70.0,29.92,ESE,112,0.0,3.0,99,0.00,,,0.00,weatherlink.com 1.10,2013-07-28 11:11:00,
2013-07-28 07:26:00,70.6,70.0,29.92,ESE,108,0.0,1.0,99,0.00,,,0.00,weatherlink.com 1.10,2013-07-28 11:26:00,
2013-07-28 07:41:00,70.7,70.0,29.92,SE,134,0.0,2.0,99,0.00,,,0.00,weatherlink.com 1.10,2013-07-28 11:41:00,
2013-07-28 07:56:00,70.8,71.0,29.93,SE,142,0.0,3.0,99,0.00,,,0.00,weatherlink.com 1.10,2013-07-28 11:56:00,
2013-07-28 08:11:00,71.0,71.0,29.92,SSE,151,0.0,3.0,99,0.00,,,0.00,weatherlink.com 1.10,2013-07-28 12:11:00,
2013-07-28 08:26:00,71.3,71.0,29.93,NW,305,2.0,3.0,99,0.00,,,0.00,weatherlink.com 1.10,2013-07-28 12:26:00,
2013-07-28 08:41:00,71.4,71.0,29.93,SW,215,0.0,3.0,99,0.00,,,0.00,weatherlink.com 1.10,2013-07-28 12:41:00,
2013-07-28 09:11:00,72.6,72.0,29.93,ENE,78,0.0,2.0,99,0.00,,,0.00,weatherlink.com 1.10,2013-07-28 13:11:00,
2013-07-28 09:26:00,73.0,72.0,29.93,SE,142,0.0,2.0,97,0.00,,,0.00,weatherlink.com 1.10,2013-07-28 13:26:00,
2013-07-28 09:41:00,73.1,72.0,29.93,SW,230,0.0,4.0,97,0.00,,,0.00,weatherlink.com 1.10,2013-07-28 13:41:00,
2013-07-28 09:56:00,73.8,72.0,29.93,South,176,0.0,6.0,95,0.00,,,0.00,weatherlink.com 1.10,2013-07-28 13:56:00,
2013-07-28 10:12:00,74.6,73.0,29.93,South,169,2.0,5.0,93,0.00,,,0.00,weatherlink.com 1.10,2013-07-28 14:12:00,
2013-07-28 10:27:00,75.6,73.0,29.93,West,275,2.0,4.0,91,0.00,,,0.00,weatherlink.com 1.10,2013-07-28 14:27:00,
2013-07-28 10:42:00,76.0,73.0,29.93,WSW,237,2.0,5.0,89,0.00,,,0.00,weatherlink.com 1.10,2013-07-28 14:42:00,
2013-07-28 10:57:00,76.9,73.0,29.93,ESE,102,0.0,4.0,87,0.00,,,0.00,weatherlink.com 1.10,2013-07-28 14:57:00,
2013-07-28 11:12:00,77.5,73.0,29.93,ESE,115,0.0,4.0,87,0.00,,,0.00,weatherlink.com 1.10,2013-07-28 15:12:00,
2013-07-28 11:27:00,78.2,73.0,29.93,ESE,119,2.0,4.0,85,0.00,,,0.00,weatherlink.com 1.10,2013-07-28 15:27:00,
2013-07-28 11:42:00,79.1,74.0,29.93,WNW,296,2.0,3.0,83,0.00,,,0.00,weatherlink.com 1.10,2013-07-28 15:42:00,
2013-07-28 11:57:00,79.6,74.0,29.94,NW,325,0.0,7.0,82,0.00,,,0.00,weatherlink.com 1.10,2013-07-28 15:57:00,
2013-07-28 12:12:00,80.2,75.0,29.93,East,80,1.0,5.0,83,0.00,,,0.00,weatherlink.com 1.10,2013-07-28 16:12:00,
2013-07-28 12:27:00,80.4,73.0,29.93,WNW,294,1.0,5.0,79,0.00,,,0.00,weatherlink.com 1.10,2013-07-28 16:27:00,
2013-07-28 12:42:00,81.3,75.0,29.93,NW,304,5.0,6.0,80,0.00,,,0.00,weatherlink.com 1.10,2013-07-28 16:42:00,
2013-07-28 12:57:00,82.6,74.0,29.94,ESE,115,1.0,6.0,76,0.00,,,0.00,weatherlink.com 1.10,2013-07-28 16:57:00,
2013-07-28 13:12:00,82.7,74.0,29.94,WNW,286,2.0,5.0,76,0.00,,,0.00,weatherlink.com 1.10,2013-07-28 17:12:00,
2013-07-28 13:27:00,83.5,74.0,29.93,ESE,121,2.0,4.0,73,0.00,,,0.00,weatherlink.com 1.10,2013-07-28 17:27:00,
2013-07-28 13:42:00,83.1,75.0,29.93,North,355,3.0,5.0,76,0.00,,,0.00,weatherlink.com 1.10,2013-07-28 17:42:00,
2013-07-28 13:57:00,83.2,74.0,29.94,West,277,0.0,3.0,74,0.00,,,0.00,weatherlink.com 1.10,2013-07-28 17:57:00,
2013-07-28 14:12:00,82.5,74.0,29.93,WNW,302,0.0,4.0,75,0.00,,,0.00,weatherlink.com 1.10,2013-07-28 18:12:00,
2013-07-28 14:27:00,83.8,75.0,29.93,WNW,290,0.0,4.0,74,0.00,,,0.00,weatherlink.com 1.10,2013-07-28 18:27:00,
2013-07-28 14:42:00,83.6,74.0,29.92,WNW,298,0.0,3.0,73,0.00,,,0.00,weatherlink.com 1.10,2013-07-28 18:42:00,
2013-07-28 14:57:00,83.8,74.0,29.92,NW,304,3.0,5.0,73,0.00,,,0.00,weatherlink.com 1.10,2013-07-28 18:57:00,
2013-07-28 15:12:00,85.5,73.0,29.92,NW,319,1.0,4.0,67,0.00,,,0.00,weatherlink.com 1.10,2013-07-28 19:12:00,
2013-07-28 15:27:00,86.2,74.0,29.91,NW,304,1.0,4.0,67,0.00,,,0.00,weatherlink.com 1.10,2013-07-28 19:27:00,
2013-07-28 15:42:00,86.5,75.0,29.90,South,179,0.0,4.0,68,0.00,,,0.00,weatherlink.com 1.10,2013-07-28 19:42:00,
2013-07-28 15:57:00,86.8,76.0,29.90,West,259,0.0,4.0,70,0.00,,,0.00,weatherlink.com 1.10,2013-07-28 19:57:00,
2013-07-28 16:12:00,88.0,76.0,29.89,ESE,123,2.0,7.0,68,0.00,,,0.00,weatherlink.com 1.10,2013-07-28 20:12:00,
2013-07-28 16:27:00,87.8,76.0,29.89,SE,126,1.0,3.0,68,0.00,,,0.00,weatherlink.com 1.10,2013-07-28 20:27:00,
2013-07-28 16:42:00,87.2,76.0,29.90,ESE,121,0.0,2.0,70,0.00,,,0.00,weatherlink.com 1.10,2013-07-28 20:42:00,
2013-07-28 16:57:00,88.0,76.0,29.90,SE,130,2.0,3.0,68,0.00,,,0.00,weatherlink.com 1.10,2013-07-28 20:57:00,
2013-07-28 17:12:00,89.0,77.0,29.89,ESE,119,0.0,2.0,67,0.00,,,0.00,weatherlink.com 1.10,2013-07-28 21:12:00,
2013-07-28 17:27:00,88.8,74.0,29.89,WNW,287,2.0,5.0,62,0.00,,,0.00,weatherlink.com 1.10,2013-07-28 21:27:00,
2013-07-28 17:42:00,87.9,75.0,29.89,SW,223,0.0,3.0,66,0.00,,,0.00,weatherlink.com 1.10,2013-07-28 21:42:00,
2013-07-28 17:57:00,86.3,75.0,29.89,SE,141,1.0,2.0,70,0.00,,,0.00,weatherlink.com 1.10,2013-07-28 21:57:00,
2013-07-28 18:12:00,86.1,76.0,29.89,SE,146,0.0,2.0,72,0.00,,,0.00,weatherlink.com 1.10,2013-07-28 22:12:00,
2013-07-28 18:27:00,87.9,77.0,29.89,ESE,106,1.0,1.0,70,0.00,,,0.00,weatherlink.com 1.10,2013-07-28 22:27:00,
2013-07-28 18:42:00,88.1,77.0,29.90,East,98,0.0,3.0,69,0.00,,,0.00,weatherlink.com 1.10,2013-07-28 22:42:00,
2013-07-28 18:57:00,87.7,75.0,29.90,SE,144,0.0,3.0,66,0.00,,,0.00,weatherlink.com 1.10,2013-07-28 22:57:00,
2013-07-28 19:12:00,86.8,76.0,29.91,SE,138,0.0,1.0,69,0.00,,,0.00,weatherlink.com 1.10,2013-07-28 23:12:00,
2013-07-28 19:27:00,85.4,75.0,29.91,SE,138,0.0,1.0,72,0.00,,,0.00,weatherlink.com 1.10,2013-07-28 23:27:00,
2013-07-28 19:42:00,84.1,75.0,29.91,SE,138,0.0,1.0,75,0.00,,,0.00,weatherlink.com 1.10,2013-07-28 23:42:00,
2013-07-28 19:57:00,83.0,75.0,29.92,SE,138,0.0,0.0,77,0.00,,,0.00,weatherlink.com 1.10,2013-07-28 23:57:00,
2013-07-28 20:12:00,81.9,75.0,29.93,SE,138,0.0,0.0,80,0.00,,,0.00,weatherlink.com 1.10,2013-07-29 00:12:00,
2013-07-28 20:27:00,80.8,75.0,29.93,SE,138,0.0,0.0,83,0.00,,,0.00,weatherlink.com 1.10,2013-07-29 00:27:00,
2013-07-28 20:42:00,79.5,75.0,29.93,SE,138,0.0,0.0,85,0.00,,,0.00,weatherlink.com 1.10,2013-07-29 00:42:00,
2013-07-28 20:57:00,78.6,75.0,29.93,SE,138,0.0,0.0,87,0.00,,,0.00,weatherlink.com 1.10,2013-07-29 00:57:00,
2013-07-28 21:27:00,77.4,73.0,29.94,East,81,0.0,3.0,86,0.00,,,0.00,weatherlink.com 1.10,2013-07-29 01:27:00,
2013-07-28 21:43:00,77.4,73.0,29.94,East,86,0.0,1.0,86,0.00,,,0.00,weatherlink.com 1.10,2013-07-29 01:43:00,
2013-07-28 21:58:00,77.4,73.0,29.95,East,88,0.0,2.0,87,0.00,,,0.00,weatherlink.com 1.10,2013-07-29 01:58:00,
2013-07-28 22:13:00,77.5,73.0,29.95,East,88,0.0,1.0,85,0.00,,,0.00,weatherlink.com 1.10,2013-07-29 02:13:00,
2013-07-28 22:28:00,77.5,73.0,29.95,East,88,0.0,0.0,87,0.00,,,0.00,weatherlink.com 1.10,2013-07-29 02:28:00,
2013-07-28 22:43:00,77.2,73.0,29.95,East,88,0.0,0.0,87,0.00,,,0.00,weatherlink.com 1.10,2013-07-29 02:43:00,
2013-07-28 22:58:00,76.6,73.0,29.95,East,88,0.0,1.0,89,0.00,,,0.00,weatherlink.com 1.10,2013-07-29 02:58:00,
2013-07-28 23:13:00,76.3,73.0,29.95,East,91,0.0,2.0,90,0.00,,,0.00,weatherlink.com 1.10,2013-07-29 03:13:00,
2013-07-28 23:28:00,76.2,74.0,29.95,East,91,0.0,0.0,91,0.00,,,0.00,weatherlink.com 1.10,2013-07-29 03:28:00,
2013-07-28 23:43:00,76.0,74.0,29.96,East,91,0.0,0.0,92,0.00,,,0.00,weatherlink.com 1.10,2013-07-29 03:43:00,
2013-07-28 23:58:00,75.8,73.0,29.96,East,91,0.0,0.0,92,0.00,,,0.00,weatherlink.com 1.10,2013-07-29 03:58:00,